Location: Heidgraben
(53.7081°N, 9.6576°E)
Time: 04:18:43
(UTC+00:00)

Cosmos 2219 Rocket - Pass Details

Date: 05 July 2020
Orbit: 827 x 847 km, 71.0° (Epoch: 06 August)

Event Time Altitude Azimuth Distance (km) Brightness Sun altitude
Rises 22:15:21 0° 226° (SW) 3,361 5.1 -12.1°
Reaches altitude 10° 22:17:50 10° 231° (SW) 2,433 4.4 -12.2°
Maximum altitude 22:23:18 56° 309° (NW) 992 2.9 -12.4°
Drops below altitude 10° 22:28:51 10° 28° (NNE) 2,458 5.4 -12.6°
Sets 22:31:22 0° 33° (NNE) 3,399 6.1 -12.7°
